Location: Pedholt
(56.0260°N, 10.2097°E)
Time: 04:01:15
(UTC+00:00)

SR - Pass Details

Date: 27 July 2021
Orbit: 581 x 874 km, 66.7° (Epoch: 21 September)

Event Time Altitude Azimuth Distance (km) Brightness Sun altitude
Rises 06:14:40 0° 186° (S) 3,437 ? 22.6°
Reaches altitude 10° 06:17:24 10° 177° (S) 2,483 ? 23.0°
Maximum altitude 06:22:25 32° 117° (ESE) 1,396 ? 23.7°
Drops below altitude 10° 06:27:12 10° 56° (NE) 2,366 ? 24.3°
Sets 06:29:46 0° 47° (NE) 3,252 ? 24.7°
